#timestamp,LO_Frequency,Hit,StdDev 
1507460415.3,286047004.2,N
1507460435.2,286047005.1,Y
1507460455.0,286047006.0,P
1507460455.9,286047006.0,N
1507460475.8,286047003.8,N
1507460495.6,286047003.9,N
1507460515.4,286047002.9,N
1507460535.3,286047003.4,N
1507460555.1,286047003.1,N
1507460575.9,286047003.3,N
1507460595.7,286047004.0,Y
1507460615.5,286046999.7,P
1507460635.4,286047003.6,N
1507460655.2,286047004.0,N
1507460675.0,286047002.6,N
1507460675.9,286047002.6,N
1507460695.8,286047000.2,N
1507460715.6,286047000.3,N
1507460735.5,286046998.4,N
1507460755.3,286047001.1,N
1507460775.1,286047002.3,N
1507460795.9,286047000.2,N
1507460815.7,286047002.7,N
1507460835.5,286047001.8,N
1507460855.4,286047001.7,N
1507460875.2,286047000.0,N
1507460895.1,286046998.1,N
1507460896.0,286046998.1,N
1507460915.8,286046999.7,N
1507460935.6,286046998.1,N
1507460955.5,286046998.1,N
1507460975.3,286046998.2,N
1507460995.1,286047001.2,N
1507461015.9,286046998.4,N
1507461035.7,286046997.0,N
1507461055.6,286046997.2,N
1507461075.4,286046999.5,N
1507461095.2,286046998.8,N
1507461115.1,286046997.5,N
1507461116.0,286046997.5,N
1507461135.8,286046999.2,N
1507461155.6,286046996.7,N
1507461175.5,286046997.6,N
1507461195.3,286046997.4,N
1507461215.2,286046997.5,N
1507461235.9,286046997.7,N
1507461255.7,286046997.1,N
1507461275.6,286046995.0,N
1507461295.4,286046995.3,N
1507461315.2,286046998.9,N
1507461335.1,286047001.1,N
1507461336.0,286047001.1,N
1507461355.8,286047002.6,N
1507461375.7,286047000.2,N
1507461395.5,286047001.1,N
1507461415.3,286047000.9,N
1507461435.2,286046998.1,N
1507461455.0,286047000.2,N
1507461455.9,286047000.2,N
1507461475.7,286047000.1,N
1507461495.6,286047000.9,N
1507461515.4,286047000.0,N
1507461535.3,286046998.1,N
1507461555.1,286046999.0,N
1507461556.0,286046999.0,N
1507461575.8,286046998.6,N
1507461595.7,286046999.6,N
1507461615.5,286046996.8,N
1507461635.4,286046997.5,N
1507461655.2,286046996.7,N
1507461675.0,286046998.0,N
1507461675.9,286046998.0,N
1507461695.8,286046995.8,N
1507461715.6,286046995.8,N
1507461735.4,286046997.8,N
1507461755.3,286046996.8,N
1507461775.1,286046996.7,N
1507461795.9,286046996.9,N
1507461815.7,286046997.4,N
1507461835.5,286046998.0,N
1507461855.4,286046995.3,N
1507461875.2,286046997.5,N
1507461895.0,286046997.5,N
1507461895.9,286046997.5,N
1507461915.8,286046997.3,N
1507461935.6,286046995.8,N
1507461955.5,286046995.4,Y
1507461975.3,286046997.4,P
1507461995.1,286046999.6,N
1507462015.9,286046997.4,N
1507462035.7,286046999.6,N
1507462055.6,286046996.5,Y
1507462075.4,286047000.3,P
1507462095.2,286046999.9,N
1507462115.1,286046999.0,N
1507462116.0,286046999.0,N
1507462135.8,286046998.8,N
1507462155.6,286046998.6,N
1507462175.5,286046999.0,N
1507462195.3,286046999.0,N
1507462215.2,286046999.3,N
1507462235.9,286046999.2,N
1507462255.7,286047001.2,N
1507462275.6,286047000.8,N
1507462295.4,286047000.7,N
1507462315.2,286047001.1,N
1507462335.1,286046999.4,N
1507462336.0,286046999.4,N
1507462355.8,286046998.4,N
1507462375.7,286046999.4,N
1507462395.5,286046998.1,N
1507462415.3,286046998.1,N
1507462435.2,286046998.4,N
1507462455.0,286047001.2,N
1507462455.9,286047001.2,N
1507462475.7,286046998.5,N
1507462495.6,286046999.2,N
1507462515.4,286046999.4,N
1507462535.3,286046999.1,N
1507462555.1,286046998.1,N
1507462556.0,286046998.1,N
1507462575.8,286046998.7,N
1507462595.7,286046998.1,N
1507462615.5,286046999.2,N
1507462635.3,286046997.2,N
1507462655.2,286046997.8,N
1507462675.0,286046997.6,N
1507462675.9,286046997.6,N
1507462695.8,286046997.6,N
1507462715.0,286046996.9,N
1507462715.9,286046996.9,N
1507462735.8,286046999.2,N
1507462755.6,286046999.4,N
1507462775.4,286046999.0,N
1507462795.3,286046999.1,N
1507462815.1,286046999.6,N
1507462835.8,286046998.4,N
1507462855.7,286046998.5,N
1507462875.5,286046999.6,N
1507462895.4,286046998.4,N
1507462915.2,286046997.5,N
1507462935.0,286046997.8,N
1507462935.9,286046997.8,N
1507462955.8,286046996.6,Y
1507462975.6,286046999.3,P
1507462995.5,286046997.1,P
1507463015.3,286046999.0,N
1507463035.1,286047001.0,N
1507463055.9,286047001.0,N
1507463075.7,286046998.4,N
1507463095.5,286046998.8,N
1507463115.4,286046998.5,N
1507463135.2,286046998.1,N
1507463155.1,286047001.1,N
1507463156.0,286047001.1,N
1507463175.8,286047000.8,N
1507463195.6,286046998.1,N
1507463215.5,286046998.8,N
1507463235.3,286046999.1,N
1507463255.2,286046999.5,N
1507463275.9,286046998.3,N
1507463295.7,286046996.9,N
1507463315.6,286046999.3,N
1507463335.4,286047000.6,N
1507463355.3,286046998.9,N
1507463375.1,286046997.4,N
1507463395.8,286046995.4,Y
1507463415.7,286046997.7,P
1507463435.5,286046999.4,N
1507463455.4,286046996.8,P
1507463475.2,286046997.6,N
1507463495.0,286046997.4,N
1507463495.9,286046997.4,N
1507463515.8,286046997.1,Y
1507463535.6,286047000.4,P
1507463555.5,286047000.5,N
1507463575.3,286047002.0,N
1507463595.1,286047002.2,N
1507463615.9,286047000.1,N
1507463635.7,286046999.9,N
1507463655.5,286047001.1,N
1507463675.4,286046999.6,N
1507463695.2,286046998.3,N
1507463715.1,286047000.5,N
1507463716.0,286047000.5,N
1507463735.8,286047002.8,N
1507463755.6,286047001.2,N
1507463775.5,286047001.0,N
1507463795.3,286047001.5,N
1507463815.1,286047001.8,N
1507463835.9,286047001.9,N
1507463855.7,286047002.6,N
1507463875.6,286046999.8,N
1507463895.4,286046998.5,N
1507463915.2,286046999.0,N
1507463935.1,286046998.8,N
1507463936.0,286046998.8,N
1507463955.8,286047000.7,N
1507463975.6,286046999.2,N
1507463995.5,286047001.1,N
